[[{"header":{"parameterUnit":"m.s-1","parameterCategory":1,"la1":30.2992,"la2":30.254,"lo1":-89.0895,"lo2":-89.0443,"dy":0.0025,"dx":0.0025,"nx":19,"ny":19,"refTime":"2026-03-21T09:00:00:Z","depth":0,"parameterNumber":2,"parameterNumberName":"U-component_of_WINDS"},"data":[0,0,0,1.4868,1.4872,1.5047,1.5047,1.5295,1.5297,0,0,0,0,0,0,0,0,0,0,0,1.4822,1.4823,1.4867,1.4872,1.5046,1.5047,1.5294,1.5297,0,0,0,0,0,0,0,0,0,0,0,1.4821,1.4823,1.4825,1.4873,1.5046,1.5047,1.5294,1.5155,0,0,0,0,0,0,0,0,0,0,1.4982,1.4943,1.4822,1.4825,1.4874,1.5046,1.5047,1.5148,1.5164,1.5223,0,1.5269,0,1.5286,1.5314,1.5315,0,0,0,1.487,1.493,1.4971,1.4825,1.4875,1.5046,1.4967,1.5157,1.5175,1.5244,1.5272,1.5281,1.5291,1.5316,1.5317,1.5648,1.565,0,0,1.486,1.4858,1.4959,1.4983,1.4948,1.4962,1.4973,1.5167,1.5202,1.5273,1.5287,1.5295,1.5318,1.532,1.5646,1.5649,0,0,0,1.4834,1.4851,1.4887,1.4973,1.5002,1.4967,1.4979,1.5193,1.5205,1.5289,1.5298,1.5319,1.5322,1.5645,1.5647,1.5726,0,0,0,1.4828,1.4836,1.4883,1.4884,1.4999,1.5098,1.5001,1.5191,1.5213,1.5296,1.5319,1.5325,1.5643,1.5646,1.572,1.5766,0,0,0,1.4809,1.4833,1.486,1.4883,1.4957,1.5095,1.5117,1.5196,1.5219,1.5315,1.5325,1.5641,1.5645,1.5714,1.5756,1.5855,0,0,0,1.4789,1.4928,1.4861,1.5021,1.4956,1.5139,1.5116,1.5254,1.5346,1.532,1.5643,1.5647,1.5713,1.5751,1.5849,1.5939,1.5974,0,0,1.4964,1.4949,1.5044,1.4989,1.5182,1.5113,1.5322,1.5411,1.5426,1.5576,1.5584,1.5722,1.5756,1.5853,1.6171,1.6199,0,0,0,1.5099,1.5167,1.5219,1.5303,1.5371,1.5437,1.5493,1.5528,1.5655,1.5499,1.5782,1.5803,1.586,1.5904,1.5928,1.5981,1.5666,1.5665,1.5665,1.5345,1.5353,1.5512,1.5542,1.5625,1.5683,1.5755,1.5813,1.5797,1.5865,1.591,1.6101,1.6151,1.617,1.6224,1.5956,1.5956,1.5956,1.5956,1.5606,1.5706,1.5682,1.5827,1.5838,1.5964,1.6029,1.6015,1.6139,1.6066,1.6118,1.604,1.62,1.6249,1.5962,1.5961,1.5961,1.596,1.596,1.5771,1.582,1.5856,1.5982,1.6081,1.611,1.623,1.6235,1.6243,1.6293,1.6346,1.6345,1.6349,1.6317,1.6318,1.6318,1.6319,1.6319,1.632,1.5929,1.5967,1.6063,1.6149,1.6207,1.6285,1.6348,1.6409,1.6478,1.6474,1.6475,1.6458,1.6211,1.6152,1.633,1.6329,1.6327,1.6326,1.6325,1.6196,1.6137,1.6286,1.6344,1.6449,1.6551,1.6556,1.668,1.6731,1.6792,1.6765,1.6579,1.6567,1.6548,1.6499,1.6757,1.6757,1.6757,1.6757,1.6338,1.6331,1.6487,1.658,1.6673,1.6694,1.6873,1.6927,1.6975,1.7009,1.6972,1.6907,1.6887,1.6887,1.6861,1.6816,1.7148,1.7149,1.7149,1.6506,1.6508,1.6654,1.6693,1.6778,1.6854,1.7024,1.7141,1.7182,1.7165,1.7038,1.7022,1.6916,1.688,1.6862,1.682,1.6737,0,0]},{"header":{"parameterUnit":"m.s-1","parameterCategory":1,"la1":30.2992,"la2":30.254,"lo1":-89.0895,"lo2":-89.0443,"dy":0.0025,"dx":0.0025,"nx":19,"ny":19,"refTime":"2026-03-21T09:00:00:Z","depth":0,"parameterNumber":3,"parameterNumberName":"V-component_of_WINDS"},"data":[0,0,0,4.6093,4.61,4.6456,4.6458,4.6892,4.6895,0,0,0,0,0,0,0,0,0,0,0,4.5975,4.5977,4.6092,4.6101,4.6456,4.6458,4.6891,4.6895,0,0,0,0,0,0,0,0,0,0,0,4.5974,4.5977,4.598,4.6102,4.6456,4.6458,4.689,4.6629,0,0,0,0,0,0,0,0,0,0,4.6287,4.6166,4.5976,4.598,4.6104,4.6455,4.6458,4.6617,4.6645,4.6722,0,4.6786,0,4.6848,4.6923,4.6925,0,0,0,4.611,4.6142,4.625,4.598,4.6107,4.6455,4.6298,4.6633,4.6665,4.6759,4.6793,4.6809,4.6855,4.6926,4.6928,4.734,4.7341,0,0,4.609,4.6032,4.6227,4.627,4.6214,4.6287,4.6309,4.6653,4.6685,4.6794,4.682,4.6862,4.6929,4.6932,4.7339,4.734,0,0,0,4.6028,4.6018,4.6117,4.6251,4.6317,4.6297,4.6323,4.667,4.6707,4.6825,4.6867,4.6931,4.6936,4.7337,4.7339,4.7359,0,0,0,4.6016,4.5981,4.6108,4.6076,4.631,4.6498,4.6331,4.6683,4.6724,4.6865,4.6931,4.694,4.7336,4.7338,4.7355,4.7378,0,0,0,4.5956,4.5975,4.6022,4.6072,4.6223,4.6494,4.6551,4.6694,4.675,4.6925,4.6941,4.7335,4.7338,4.7351,4.7372,4.7471,0,0,0,4.5874,4.6031,4.6021,4.6213,4.622,4.6503,4.655,4.6763,4.6916,4.6933,4.7336,4.7339,4.735,4.7368,4.7467,4.7545,4.7572,0,0,4.604,4.6049,4.6167,4.6168,4.6439,4.6453,4.6727,4.6921,4.699,4.7219,4.723,4.7356,4.7372,4.747,4.7739,4.7759,0,0,0,4.62,4.6284,4.6369,4.6512,4.6665,4.6799,4.6957,4.703,4.7228,4.7096,4.742,4.7431,4.7491,4.7531,4.7549,4.7606,4.7355,4.7354,4.7354,4.635,4.6433,4.6634,4.676,4.6898,4.7062,4.7182,4.7308,4.7347,4.7423,4.7492,4.7645,4.769,4.7703,4.7761,4.7538,4.7538,4.7539,4.7539,4.6602,4.6735,4.6788,4.7003,4.7089,4.727,4.7434,4.7457,4.7639,4.7599,4.7656,4.7607,4.7724,4.7779,4.7541,4.754,4.754,4.754,4.754,4.6711,4.679,4.6876,4.7094,4.7253,4.7375,4.7548,4.7619,4.7687,4.7744,4.7826,4.7826,4.7837,4.7778,4.7778,4.7779,4.7779,4.778,4.778,4.679,4.6888,4.7025,4.7203,4.7307,4.7451,4.7619,4.7722,4.7855,4.7894,4.7895,4.7929,4.7719,4.7666,4.7789,4.7787,4.7786,4.7785,4.7785,4.7018,4.6979,4.7191,4.7295,4.7511,4.7666,4.7755,4.7961,4.8056,4.814,4.8163,4.7996,4.801,4.7996,4.7953,4.8143,4.8143,4.8143,4.8143,4.7111,4.7126,4.7361,4.7522,4.7689,4.7792,4.8031,4.8164,4.8294,4.8359,4.8342,4.829,4.8273,4.8298,4.8278,4.8239,4.8497,4.8497,4.8498,4.7257,4.7291,4.7481,4.761,4.7785,4.7934,4.8162,4.8346,4.8485,4.8514,4.8412,4.8397,4.8314,4.8283,4.8308,4.8275,4.8205,0,0]}]]